OSCAR 17 (DOVE)

Satellite information

Favourite Embed

Satellite Type and Status

PAYLOADIN ORBIT

Key statistics

Satellite OSCAR 17 (DOVE) at a glance.

Uptime

12949

Days in orbit

Revolutions

≈ 14.3

Per day

Orbit

SSO

Sun Synchronous Orbit

Inclination

98.9

Latest

Satellite identification and parameters

Extended collection of information and parameters for OSCAR 17 (DOVE).

Object identification

Identified? True

Debris? False

Object name: OSCAR 17 (DOVE)

International designator: 1990-005E

Object number (NORAD): 20440

Object ID (CCSDS): 20440

Country: BRAZIL (BRAZ)

Current information (Y/N): Y

RCS size: MEDIUM

Orbital parameters

Period: 100.396 minutes

Inclination: 98.8882 deg

SMA: 7155.48 km

Apoapsis: 785.478 km

Periapsis: 769.212 km

RAAN: 202.6392 deg

Eccentricy: 0.0011366

Argument of periapsis: 138.0267 deg

Mean anomaly: 335.2434 deg

Mean motion: 14.34315174 rev/day

Mean motion (dot): 0.00000114 rev/day2

B* drag term: 0.00005709 1/REarth

Two-line elements (TLE)

Creation date: July 5, 2025, 5:45 p.m.

Reference frame: TEME

Reference center: EARTH

Epoch: July 5, 2025, 2:26 p.m. UTC

TLE line 0: 0 OSCAR 17 (DOVE)

TLE line 1: 1 20440U 90005E 25186.60143851 .00000114 00000-0 57090-4 0 9995

TLE line 2: 2 20440 98.8882 202.6392 0011366 138.0267 335.2434 14.34315174852656

Live tracking on map

Real-time ground track for satellite OSCAR 17 (DOVE).

In-orbit conjunctions

A list of the most updated potential collisions computed for object OSCAR 17 (DOVE).

Target Orbit TCA Probability of collision Miss distance Type
CZ-6A DEB LEO 2025-06-28 12:22:35 0.0006249437 473.0 (m) DEBRIS
COSMOS 2251 DEB LEO 2025-05-04 11:20:22 0.001048368 182.0 (m) DEBRIS
COSMOS 1818 COOLANT LEO 2025-04-10 22:11:55 0.0001441393 720.0 (m) DEBRIS
COSMOS 1354 LEO 2025-03-16 10:27:43 0.0001246819 302.0 (m) PAYLOAD
NOAA 16 DEB SSO 2025-02-09 01:26:52 0.0004473899 362.0 (m) DEBRIS

Associated space launch

French Earth observation satellite

OSCAR 17 (DOVE) was lifted into orbit during the mission ‘Ariane 40 | SPOT 2’, on board a Ariane 40 space rocket.

The launch took place on Jan. 22, 1990, 1:35 a.m. from Ariane Launch Area 2.

For more information about the launch, click the button.

Launch to space Ariane 40 | SPOT 2
Ariane 40 | SPOT 2

Agency: N/A

Status: Launch Successful

Launch date: Jan. 22, 1990, 1:35 a.m. UTC

Rocket: Ariane 40

Launch pad: Ariane Launch Area 2

Location: Guiana Space Centre, French Guiana

...

Latest news about this satellite

There are no fresh news available about this satellite. Check back as we update our databases every day.


Newsletter sign-up

Weekly statistics, charts and insights to help you stay on top of the space industry.